User: anonymous   Login
Location: El Mouella
(16.4949°N, 9.1594°W)
Time: 12:30:35
(UTC+00:00)
Language:

H-2A R/B - Orbit

View from above orbital plane
View from above orbital plane
View from above satellite
View from above satellite

Ground track
Ground track

The orbit data is extracted from the following two-line orbital elements,

1 27601U 02056E   21131.66244354 -.00000027  00000-0  48994-5 0  9990
2 27601  98.1921 155.9324 0072542  20.6649  87.0844 14.31991748961660
Epoch (UTC): 11 May 2021 15:53:55
Eccentricity: 0.0072542
inclination: 98.1921°
perigee height: 733 km
apogee height: 837 km
right ascension of ascending node: 155.9324°
argument of perigee: 20.6649°
revolutions per day: 14.31991748
mean anomaly at epoch: 87.0844°
orbit number at epoch: 96166

The dashed part of the orbit path shows where the satellite is in the earth's shadow,  

DLR